Time,TemperatureF,DewpointF,PressureIn,WindDirection,WindDirectionDegrees,WindSpeedMPH,WindSpeedGustMPH,Humidity,HourlyPrecipIn,Conditions,Clouds,dailyrainin,SoftwareType,DateUTC
2013-04-24 00:02:00,48.0,41.0,29.75,SE,130,1.0,2.0,78,0.00,,,0.00,,2013-04-24 07:02:00,
2013-04-24 00:11:00,48.0,41.0,29.75,SE,130,1.0,2.0,78,0.00,,,0.00,,2013-04-24 07:11:00,
2013-04-24 00:21:00,46.0,41.0,29.75,SE,130,1.0,2.0,84,0.00,,,0.00,,2013-04-24 07:21:00,
2013-04-24 00:31:00,46.0,42.0,29.75,SE,130,1.0,2.0,85,0.00,,,0.00,,2013-04-24 07:31:00,
2013-04-24 00:42:00,46.0,42.0,29.75,SE,130,1.0,2.0,85,0.00,,,0.00,,2013-04-24 07:42:00,
2013-04-24 00:52:00,45.0,41.0,29.75,SE,130,0.0,2.0,86,0.00,,,0.00,,2013-04-24 07:52:00,
2013-04-24 01:01:00,45.0,41.0,29.75,SE,130,0.0,2.0,87,0.00,,,0.00,,2013-04-24 08:01:00,
2013-04-24 01:11:00,45.0,41.0,29.75,SE,130,0.0,2.0,87,0.00,,,0.00,,2013-04-24 08:11:00,
2013-04-24 01:21:00,44.0,41.0,29.75,SE,130,0.0,2.0,88,0.00,,,0.00,,2013-04-24 08:21:00,
2013-04-24 01:33:00,44.0,41.0,29.75,SE,130,0.0,2.0,89,0.00,,,0.00,,2013-04-24 08:33:00,
2013-04-24 01:42:00,44.0,41.0,29.75,SE,130,0.0,2.0,89,0.00,,,0.00,,2013-04-24 08:42:00,
2013-04-24 01:52:00,43.0,40.0,29.75,SSE,162,0.0,2.0,90,0.00,,,0.00,,2013-04-24 08:52:00,
2013-04-24 02:01:00,43.0,40.0,29.74,SSE,155,0.0,3.0,90,0.00,,,0.00,,2013-04-24 09:01:00,
2013-04-24 02:11:00,43.0,40.0,29.74,SSE,155,0.0,3.0,90,0.00,,,0.00,,2013-04-24 09:11:00,
2013-04-24 02:21:00,43.0,41.0,29.74,South,169,0.0,3.0,91,0.00,,,0.00,,2013-04-24 09:21:00,
2013-04-24 02:32:00,43.0,41.0,29.73,South,181,0.0,2.0,91,0.00,,,0.00,,2013-04-24 09:32:00,
2013-04-24 02:42:00,43.0,41.0,29.73,South,181,0.0,2.0,91,0.00,,,0.00,,2013-04-24 09:42:00,
2013-04-24 02:53:00,42.0,40.0,29.72,SE,140,1.0,3.0,92,0.00,,,0.00,,2013-04-24 09:53:00,
2013-04-24 03:02:00,42.0,40.0,29.72,SE,143,1.0,3.0,92,0.00,,,0.00,,2013-04-24 10:02:00,
2013-04-24 03:12:00,42.0,40.0,29.72,SE,143,1.0,3.0,92,0.00,,,0.00,,2013-04-24 10:12:00,
2013-04-24 03:22:00,42.0,40.0,29.72,South,180,1.0,3.0,91,0.00,,,0.00,,2013-04-24 10:22:00,
2013-04-24 03:32:00,41.0,39.0,29.72,SSE,164,1.0,3.0,93,0.00,,,0.00,,2013-04-24 10:32:00,
2013-04-24 03:42:00,41.0,39.0,29.72,SSE,164,1.0,3.0,93,0.00,,,0.00,,2013-04-24 10:42:00,
2013-04-24 03:53:00,41.0,39.0,29.72,South,184,2.0,4.0,93,0.00,,,0.00,,2013-04-24 10:53:00,
2013-04-24 04:02:00,40.0,38.0,29.71,South,169,1.0,3.0,92,0.00,,,0.00,,2013-04-24 11:02:00,
2013-04-24 04:11:00,40.0,38.0,29.71,South,169,1.0,3.0,92,0.00,,,0.00,,2013-04-24 11:11:00,
2013-04-24 04:21:00,40.0,38.0,29.71,WNW,298,1.0,4.0,94,0.00,,,0.00,,2013-04-24 11:21:00,
2013-04-24 04:31:00,40.0,38.0,29.71,ESE,114,1.0,3.0,94,0.00,,,0.00,,2013-04-24 11:31:00,
2013-04-24 04:42:00,40.0,38.0,29.71,ESE,114,1.0,3.0,94,0.00,,,0.00,,2013-04-24 11:42:00,
2013-04-24 04:52:00,40.0,38.0,29.70,NNW,346,2.0,6.0,94,0.00,,,0.00,,2013-04-24 11:52:00,
2013-04-24 05:01:00,40.0,38.0,29.70,South,171,1.0,7.0,94,0.00,,,0.00,,2013-04-24 12:01:00,
2013-04-24 05:11:00,40.0,38.0,29.70,South,171,1.0,7.0,94,0.00,,,0.00,,2013-04-24 12:11:00,
2013-04-24 05:22:00,42.0,40.0,29.70,SE,141,2.0,5.0,92,0.00,,,0.00,,2013-04-24 12:22:00,
2013-04-24 05:31:00,42.0,39.0,29.70,SSE,158,2.0,5.0,90,0.00,,,0.00,,2013-04-24 12:31:00,
2013-04-24 05:42:00,42.0,39.0,29.70,SSE,158,2.0,5.0,90,0.00,,,0.00,,2013-04-24 12:42:00,
2013-04-24 05:52:00,44.0,40.0,29.70,NNE,23,1.0,4.0,85,0.00,,,0.00,,2013-04-24 12:52:00,
2013-04-24 06:01:00,44.0,39.0,29.70,SE,132,4.0,7.0,82,0.00,,,0.00,,2013-04-24 13:01:00,
2013-04-24 06:12:00,44.0,39.0,29.70,SE,132,4.0,7.0,82,0.00,,,0.00,,2013-04-24 13:12:00,
2013-04-24 06:22:00,48.0,35.0,29.71,SE,141,3.0,7.0,61,0.00,,,0.00,,2013-04-24 13:22:00,
2013-04-24 06:31:00,57.0,32.0,29.71,SE,130,2.0,8.0,38,0.00,,,0.00,,2013-04-24 13:31:00,
2013-04-24 06:52:00,61.0,32.0,29.70,ESE,118,1.0,8.0,34,0.00,,,0.00,,2013-04-24 13:52:00,
2013-04-24 07:01:00,60.0,30.0,29.71,ESE,115,2.0,8.0,32,0.00,,,0.00,,2013-04-24 14:01:00,
2013-04-24 07:32:00,62.0,29.0,29.72,SE,136,3.0,7.0,29,0.00,,,0.00,,2013-04-24 14:32:00,
2013-04-24 08:01:00,64.0,28.0,29.72,SE,138,4.0,10.0,26,0.00,,,0.00,,2013-04-24 15:01:00,
2013-04-24 08:32:00,65.0,34.0,29.73,NE,34,3.0,7.0,32,0.00,,,0.00,,2013-04-24 15:32:00,
2013-04-24 09:03:00,64.0,41.0,29.73,SSE,168,2.0,6.0,43,0.00,,,0.00,,2013-04-24 16:03:00,
2013-04-24 09:23:00,65.0,39.0,29.73,SE,144,2.0,8.0,39,0.00,,,0.00,,2013-04-24 16:23:00,
2013-04-24 09:32:00,68.0,43.0,29.73,NNW,330,1.0,7.0,40,0.00,,,0.00,,2013-04-24 16:32:00,
2013-04-24 10:02:00,70.0,39.0,29.74,North,360,3.0,7.0,32,0.00,,,0.00,,2013-04-24 17:02:00,
2013-04-24 10:22:00,71.0,40.0,29.75,NNW,331,2.0,6.0,32,0.00,,,0.00,,2013-04-24 17:22:00,
2013-04-24 10:32:00,71.0,45.0,29.74,NW,326,2.0,6.0,40,0.00,,,0.00,,2013-04-24 17:32:00,
2013-04-24 10:52:00,72.0,49.0,29.75,NW,312,3.0,7.0,44,0.00,,,0.00,,2013-04-24 17:52:00,
2013-04-24 11:02:00,73.0,48.0,29.75,NNW,340,4.0,9.0,41,0.00,,,0.00,,2013-04-24 18:02:00,
2013-04-24 11:32:00,74.0,50.0,29.75,West,269,4.0,8.0,43,0.00,,,0.00,,2013-04-24 18:32:00,
2013-04-24 12:01:00,74.0,50.0,29.75,West,276,3.0,9.0,43,0.00,,,0.00,,2013-04-24 19:01:00,
2013-04-24 12:31:00,73.0,50.0,29.75,West,263,5.0,10.0,45,0.00,,,0.00,,2013-04-24 19:31:00,
2013-04-24 12:52:00,73.0,50.0,29.75,SW,225,2.0,9.0,45,0.00,,,0.00,,2013-04-24 19:52:00,
2013-04-24 13:01:00,72.0,49.0,29.75,WNW,282,5.0,11.0,45,0.00,,,0.00,,2013-04-24 20:01:00,
2013-04-24 13:11:00,72.0,49.0,29.75,WNW,282,5.0,11.0,45,0.00,,,0.00,,2013-04-24 20:11:00,
2013-04-24 13:21:00,72.0,49.0,29.75,WNW,282,5.0,11.0,45,0.00,,,0.00,,2013-04-24 20:21:00,
2013-04-24 13:32:00,72.0,51.0,29.75,SW,233,4.0,11.0,47,0.00,,,0.00,,2013-04-24 20:32:00,
2013-04-24 13:52:00,72.0,49.0,29.75,SSW,198,6.0,11.0,45,0.00,,,0.00,,2013-04-24 20:52:00,
2013-04-24 14:02:00,71.0,50.0,29.75,West,272,7.0,11.0,47,0.00,,,0.00,,2013-04-24 21:02:00,
2013-04-24 14:21:00,71.0,49.0,29.75,SSW,192,5.0,11.0,46,0.00,,,0.00,,2013-04-24 21:21:00,
2013-04-24 14:32:00,71.0,49.0,29.75,SW,221,5.0,10.0,46,0.00,,,0.00,,2013-04-24 21:32:00,
2013-04-24 14:52:00,71.0,50.0,29.75,West,265,4.0,13.0,47,0.00,,,0.00,,2013-04-24 21:52:00,
2013-04-24 15:03:00,70.0,49.0,29.75,WSW,245,4.0,14.0,48,0.00,,,0.00,,2013-04-24 22:03:00,
2013-04-24 15:22:00,70.0,50.0,29.75,West,259,3.0,11.0,50,0.00,,,0.00,,2013-04-24 22:22:00,
2013-04-24 15:33:00,69.0,49.0,29.75,WSW,254,6.0,11.0,49,0.00,,,0.00,,2013-04-24 22:33:00,
2013-04-24 15:42:00,69.0,49.0,29.75,WSW,254,6.0,11.0,49,0.00,,,0.00,,2013-04-24 22:42:00,
2013-04-24 15:52:00,69.0,50.0,29.74,West,279,7.0,14.0,51,0.00,,,0.00,,2013-04-24 22:52:00,
2013-04-24 16:02:00,69.0,50.0,29.74,SSE,159,5.0,11.0,51,0.00,,,0.00,,2013-04-24 23:02:00,
2013-04-24 16:12:00,69.0,50.0,29.74,SSE,159,5.0,11.0,51,0.00,,,0.00,,2013-04-24 23:12:00,
2013-04-24 16:21:00,68.0,50.0,29.74,West,264,6.0,12.0,52,0.00,,,0.00,,2013-04-24 23:21:00,
2013-04-24 16:32:00,67.0,49.0,29.74,West,263,7.0,13.0,52,0.00,,,0.00,,2013-04-24 23:32:00,
2013-04-24 16:42:00,67.0,49.0,29.74,West,263,7.0,13.0,52,0.00,,,0.00,,2013-04-24 23:42:00,
2013-04-24 16:51:00,66.0,48.0,29.74,West,266,6.0,14.0,53,0.00,,,0.00,,2013-04-24 23:51:00,
2013-04-24 17:01:00,65.0,48.0,29.74,West,267,5.0,13.0,55,0.00,,,0.00,,2013-04-25 00:01:00,
2013-04-24 17:12:00,65.0,48.0,29.74,West,267,5.0,13.0,55,0.00,,,0.00,,2013-04-25 00:12:00,
2013-04-24 17:22:00,64.0,47.0,29.74,WSW,257,5.0,10.0,55,0.00,,,0.00,,2013-04-25 00:22:00,
2013-04-24 17:32:00,64.0,48.0,29.74,NW,305,6.0,10.0,56,0.00,,,0.00,,2013-04-25 00:32:00,
2013-04-24 17:41:00,64.0,48.0,29.74,NW,305,6.0,10.0,56,0.00,,,0.00,,2013-04-25 00:41:00,
2013-04-24 17:51:00,63.0,48.0,29.75,WSW,250,6.0,10.0,57,0.00,,,0.00,,2013-04-25 00:51:00,
2013-04-24 18:01:00,62.0,47.0,29.75,WSW,243,5.0,12.0,58,0.00,,,0.00,,2013-04-25 01:01:00,
2013-04-24 18:11:00,62.0,47.0,29.75,WSW,243,5.0,12.0,58,0.00,,,0.00,,2013-04-25 01:11:00,
2013-04-24 18:22:00,60.0,46.0,29.75,WNW,296,6.0,11.0,60,0.00,,,0.00,,2013-04-25 01:22:00,
2013-04-24 18:32:00,59.0,46.0,29.75,WSW,252,6.0,12.0,62,0.00,,,0.00,,2013-04-25 01:32:00,
2013-04-24 18:52:00,57.0,46.0,29.76,WSW,246,4.0,10.0,66,0.00,,,0.00,,2013-04-25 01:52:00,
2013-04-24 19:01:00,56.0,46.0,29.77,West,270,2.0,9.0,68,0.00,,,0.00,,2013-04-25 02:01:00,
2013-04-24 19:22:00,55.0,46.0,29.77,WNW,288,2.0,10.0,71,0.00,,,0.00,,2013-04-25 02:22:00,
2013-04-24 19:32:00,53.0,45.0,29.77,SSW,211,1.0,9.0,73,0.00,,,0.00,,2013-04-25 02:32:00,
2013-04-24 19:42:00,53.0,45.0,29.77,SSW,211,1.0,9.0,73,0.00,,,0.00,,2013-04-25 02:42:00,
2013-04-24 19:51:00,53.0,45.0,29.77,SSW,211,1.0,9.0,73,0.00,,,0.00,,2013-04-25 02:51:00,
2013-04-24 20:02:00,51.0,44.0,29.78,West,276,3.0,8.0,78,0.00,,,0.00,,2013-04-25 03:02:00,
2013-04-24 20:22:00,49.0,43.0,29.78,WSW,244,3.0,6.0,81,0.00,,,0.00,,2013-04-25 03:22:00,
2013-04-24 20:52:00,47.0,43.0,29.80,WSW,252,2.0,7.0,85,0.00,,,0.00,,2013-04-25 03:52:00,
2013-04-24 21:03:00,46.0,42.0,29.80,WSW,247,3.0,7.0,87,0.00,,,0.00,,2013-04-25 04:03:00,
2013-04-24 21:22:00,46.0,43.0,29.81,WNW,294,1.0,5.0,88,0.00,,,0.00,,2013-04-25 04:22:00,
2013-04-24 21:32:00,46.0,43.0,29.82,West,273,3.0,7.0,89,0.00,,,0.00,,2013-04-25 04:32:00,
2013-04-24 21:52:00,46.0,43.0,29.82,WSW,256,4.0,8.0,89,0.00,,,0.00,,2013-04-25 04:52:00,
2013-04-24 22:02:00,46.0,43.0,29.83,West,266,2.0,6.0,90,0.00,,,0.00,,2013-04-25 05:02:00,
2013-04-24 22:12:00,46.0,43.0,29.83,West,266,2.0,6.0,90,0.00,,,0.00,,2013-04-25 05:12:00,
2013-04-24 22:21:00,46.0,43.0,29.83,WSW,241,2.0,6.0,89,0.00,,,0.00,,2013-04-25 05:21:00,
2013-04-24 22:32:00,46.0,43.0,29.83,WSW,241,2.0,6.0,89,0.00,,,0.00,,2013-04-25 05:32:00,
2013-04-24 22:42:00,46.0,43.0,29.83,WSW,241,2.0,6.0,89,0.00,,,0.00,,2013-04-25 05:42:00,
2013-04-24 22:51:00,46.0,43.0,29.83,West,277,2.0,7.0,89,0.00,,,0.00,,2013-04-25 05:51:00,
2013-04-24 23:01:00,46.0,43.0,29.83,West,265,2.0,7.0,90,0.00,,,0.00,,2013-04-25 06:01:00,
2013-04-24 23:11:00,46.0,43.0,29.83,West,265,2.0,7.0,90,0.00,,,0.00,,2013-04-25 06:11:00,
2013-04-24 23:22:00,46.0,43.0,29.83,West,272,3.0,10.0,90,0.00,,,0.00,,2013-04-25 06:22:00,
2013-04-24 23:31:00,46.0,44.0,29.83,WSW,250,1.0,6.0,91,0.00,,,0.00,,2013-04-25 06:31:00,
2013-04-24 23:41:00,46.0,44.0,29.83,WSW,250,1.0,6.0,91,0.00,,,0.00,,2013-04-25 06:41:00,
2013-04-24 23:52:00,46.0,43.0,29.83,West,270,3.0,6.0,90,0.00,,,0.00,,2013-04-25 06:52:00,